Tracking 22440 objects as of 27-Feb-2021
HD Live streaming from Space Station
objects crossing your sky now

METEOR M2-2

Track METEOR M2-2 now!
10-day predictions
METEOR M2-2 is classified as:


NORAD ID: 44387
Int'l Code: 2019-038A
Perigee: 819.3 km
Apogee: 820.8 km
Inclination: 98.7 °
Period: 101.1 minutes
Semi major axis: 7191 km
RCS: Unknown
Launch date: July 5, 2019
Source: Commonwealth of Independent States (former USSR) (CIS)
Launch site: VOSTOCHNY COSMODROME (VOSTO)

Uplink (MHz):
Downlink (MHz): 137.100/137.900
Beacon (MHz):
Mode: 72Kbps QPSK
Call sign:
Status:

aabbcc
Your satellite tracking list
Your tracking list is empty




NASA's NSSDC Master Catalog

Two Line Element Set (TLE):
1 44387U 19038A   21058.20287678 -.00000012  00000-0  14029-4 0  9997
2 44387  98.6555  19.6565 0000994 153.2566 206.8668 14.23685973 85780
Source of the keplerian elements: AFSPC